Location: Northcutt
(34.7304°N, 84.4305°W)
Time: 03:45:32
(UTC+00:00)

Vanguard 2 - Pass Details

Date: 10 October 2022
Orbit: 553 x 2933 km, 32.9° (Epoch: 05 December)

Event Time Altitude Azimuth Distance (km) Brightness Sun altitude
Rises 14:34:04 0° 212° (SSW) 3,151 10.8 32.2°
Reaches altitude 10° 14:36:28 10° 199° (SSW) 2,437 10.4 32.6°
Maximum altitude 14:41:18 27° 142° (SE) 1,940 11.8 33.4°
Drops below altitude 10° 14:48:19 10° 89° (E) 3,656 11.8 34.5°
Sets 14:52:49 0° 79° (E) 5,099 12.2 35.2°
